This is the latest recevied weather packets stored in our database for station/object SR6WVX. If no packets are shown the sender has not sent any weather packets the latest 10 day(s).
| Time | Temp. | Humidity | Pressure | Rain* | Wind** | Luminosity | Snow |
|---|---|---|---|---|---|---|---|
| 1777458878 | 13.33° C | 25% | 1024.1 hPa | 0 mm | - | - | - |
| 1777458577 | 12.78° C | 26% | 1024.1 hPa | 0 mm | - | - | - |
| 1777457977 | 12.78° C | 25% | 1024.2 hPa | 0 mm | - | - | - |
| 1777457676 | 12.78° C | 27% | 1024.2 hPa | 0 mm | - | - | - |
| 1777457376 | 12.78° C | 25% | 1024.3 hPa | 0 mm | - | - | - |
| 1777457076 | 12.78° C | 27% | 1024.3 hPa | 0 mm | - | - | - |
| 1777456776 | 12.78° C | 26% | 1024.3 hPa | 0 mm | - | - | - |
| 1777456475 | 12.22° C | 26% | 1024.4 hPa | 0 mm | - | - | - |
| 1777455875 | 12.78° C | 26% | 1024.2 hPa | 0 mm | - | - | - |
| 1777455575 | 13.33° C | 26% | 1024.1 hPa | 0 mm | - | - | - |
| 1777455274 | 12.78° C | 27% | 1024.1 hPa | 0 mm | - | - | - |
| 1777454974 | 12.78° C | 27% | 1024 hPa | 0 mm | - | - | - |
| 1777454674 | 12.78° C | 27% | 1023.9 hPa | 0 mm | - | - | - |
| 1777454374 | 12.22° C | 27% | 1024.1 hPa | 0 mm | - | - | - |
| 1777454073 | 12.22° C | 27% | 1024.2 hPa | 0 mm | - | - | - |
| 1777453773 | 12.78° C | 27% | 1024.1 hPa | 0 mm | - | - | - |
| 1777453473 | 12.78° C | 26% | 1024.2 hPa | 0 mm | - | - | - |
| 1777453173 | 12.78° C | 26% | 1024.1 hPa | 0 mm | - | - | - |
| 1777452872 | 13.33° C | 26% | 1024.2 hPa | 0 mm | - | - | - |
| 1777452272 | 12.78° C | 29% | 1024.3 hPa | 0 mm | - | - | - |
| 1777451971 | 13.33° C | 27% | 1024.3 hPa | 0 mm | - | - | - |
| 1777451671 | 12.78° C | 29% | 1024.2 hPa | 0 mm | - | - | - |
| 1777451371 | 12.22° C | 28% | 1024.3 hPa | 0 mm | - | - | - |
| 1777451071 | 12.78° C | 27% | 1024.2 hPa | 0 mm | - | - | - |
| 1777450770 | 12.78° C | 28% | 1024.2 hPa | 0 mm | - | - | - |
* Rain latest hour (hover to see other rain measurements)
** Current wind speed in m/s (hover to see current wind gust speed)